Weather History for Southern Pines, NC

Change the Weather History Date:

Wednesday, January 30, 2013

  Actual Average Record
Temperature  
Mean Temperature 66 °F -  
Max Temperature 73 °F 49 °F 78 °F (2002)
Min Temperature 59 °F 30 °F 1 °F (2014)
Cooling Degree Days 2    
Growing Degree Days 16 (Base 50)    
Moisture  
Dew Point 59 °F    
Average Humidity 76    
Maximum Humidity 88    
Minimum Humidity 57    
Precipitation  
Precipitation 0.27 in - - ()
Sea Level Pressure  
Sea Level Pressure 29.81 in    
Wind  
Wind Speed 16 mph (SSW)    
Max Wind Speed 28 mph    
Max Gust Speed 40 mph    
Visibility 10 miles    
Events      
Averages and records for this station are not official NWS values.
T = Trace of Precipitation, MM = Missing Value Source: NWS Daily Summary

Daily Weather History Graph

Daily Weather History Graph

Search for Another Location

Airport:

Trip Planner

Search our weather history database for the weather conditions in past years. The results will help you decide how hot, cold, wet, or windy it might be!

Date:

Astronomy

Jan. 30, 2013 Rise Set
Actual Time 7:18 AM EST 5:44 PM EST
Civil Twilight 6:51 AM EST 6:10 PM EST
Nautical Twilight 6:20 AM EST 6:41 PM EST
Astronomical Twilight 5:50 AM EST 7:11 PM EST
Moon 9:29 PM EST (1/30) 8:55 AM EST (1/30)
Length of Visible Light 11h 19m
Length of Day
10h 26m
Waning Gibbous, 88% of the Moon is Illuminated
Jan 30
Waning Gibbous
Feb 3
Last Quarter
Feb 10
New
Feb 17
First Quarter
Feb 25
Full

Hourly Weather History & Observations

Time (EST) Temp. Dew Point Humidity Pressure Visibility Wind Dir Wind Speed Gust Speed Precip Events Conditions
12:15 AM 62.6 °F 57.2 °F 82% 30.08 in 10.0 mi SSW 12.7 mph - N/A   Clear
12:35 AM 62.6 °F 57.2 °F 82% 30.08 in 10.0 mi SSW 13.8 mph 21.9 mph N/A   Clear
12:55 AM 62.6 °F 57.2 °F 82% 30.07 in 10.0 mi SSW 12.7 mph - N/A   Scattered Clouds
1:35 AM 64.4 °F 59.0 °F 83% 30.06 in 10.0 mi SSW 11.5 mph 21.9 mph N/A   Overcast
1:55 AM 64.4 °F 59.0 °F 83% 30.06 in 10.0 mi SSW 16.1 mph 23.0 mph N/A   Overcast
2:15 AM 64.4 °F 59.0 °F 83% 30.05 in 10.0 mi SSW 15.0 mph 23.0 mph N/A   Overcast
2:35 AM 64.4 °F 59.0 °F 83% 30.05 in 10.0 mi SSW 16.1 mph 21.9 mph N/A   Overcast
2:55 AM 64.4 °F 59.0 °F 83% 30.04 in 10.0 mi SW 12.7 mph 21.9 mph N/A   Overcast
3:15 AM 64.4 °F 59.0 °F 83% 30.03 in 10.0 mi SSW 13.8 mph 21.9 mph N/A   Overcast
3:55 AM 64.4 °F 59.0 °F 83% 30.02 in 10.0 mi SSW 11.5 mph - N/A   Overcast
4:15 AM 64.4 °F 59.0 °F 83% 30.01 in 10.0 mi SSW 13.8 mph 20.7 mph N/A   Overcast
4:35 AM 64.4 °F 59.0 °F 83% 30.00 in 10.0 mi SSW 12.7 mph - N/A   Overcast
4:55 AM 64.4 °F 59.0 °F 83% 30.00 in 10.0 mi SSW 16.1 mph 23.0 mph N/A   Overcast
5:15 AM 64.4 °F 59.0 °F 83% 30.00 in 10.0 mi SSW 15.0 mph 20.7 mph N/A   Overcast
5:35 AM 64.4 °F 59.0 °F 83% 29.99 in 10.0 mi SSW 13.8 mph 20.7 mph N/A   Overcast
5:55 AM 64.4 °F 60.8 °F 88% 29.99 in 10.0 mi SSW 15.0 mph 24.2 mph N/A   Overcast
6:15 AM 64.4 °F 60.8 °F 88% 29.98 in 10.0 mi SSW 17.3 mph 23.0 mph N/A   Overcast
6:35 AM 64.4 °F 60.8 °F 88% 29.97 in 10.0 mi SSW 13.8 mph 21.9 mph N/A   Overcast
6:55 AM 64.4 °F 60.8 °F 88% 29.97 in 10.0 mi SSW 13.8 mph 23.0 mph N/A   Overcast
7:15 AM 64.4 °F 60.8 °F 88% 29.97 in 10.0 mi SSW 15.0 mph 28.8 mph N/A   Overcast
7:35 AM 64.4 °F 60.8 °F 88% 29.97 in 10.0 mi SSW 20.7 mph 24.2 mph N/A   Overcast
7:55 AM 64.4 °F 60.8 °F 88% 29.97 in 10.0 mi SSW 15.0 mph 31.1 mph N/A   Overcast
8:15 AM 64.4 °F 60.8 °F 88% 29.96 in 10.0 mi SSW 18.4 mph 31.1 mph N/A   Overcast
8:35 AM 66.2 °F 60.8 °F 83% 29.96 in 10.0 mi SSW 19.6 mph 25.3 mph N/A   Overcast
8:55 AM 66.2 °F 60.8 °F 83% 29.95 in 10.0 mi SSW 18.4 mph 24.2 mph N/A   Overcast
9:15 AM 66.2 °F 60.8 °F 83% 29.94 in 10.0 mi SSW 18.4 mph 26.5 mph N/A   Overcast
9:35 AM 66.2 °F 60.8 °F 83% 29.93 in 10.0 mi SSW 17.3 mph 25.3 mph N/A   Overcast
9:55 AM 66.2 °F 60.8 °F 83% 29.93 in 10.0 mi SSW 15.0 mph 28.8 mph N/A   Overcast
10:15 AM 66.2 °F 60.8 °F 83% 29.93 in 10.0 mi SSW 20.7 mph 28.8 mph N/A   Overcast
10:35 AM 66.2 °F 60.8 °F 83% 29.92 in 10.0 mi South 9.2 mph 26.5 mph N/A   Overcast
10:55 AM 66.2 °F 60.8 °F 83% 29.92 in 10.0 mi SSW 16.1 mph 24.2 mph N/A   Overcast
11:15 AM 66.2 °F 60.8 °F 83% 29.91 in 10.0 mi SSW 16.1 mph 23.0 mph N/A   Overcast
11:35 AM 66.2 °F 60.8 °F 83% 29.90 in 10.0 mi SSW 17.3 mph 24.2 mph N/A   Overcast
11:55 AM 66.2 °F 60.8 °F 83% 29.88 in 10.0 mi SSW 16.1 mph 24.2 mph N/A   Overcast
12:15 PM 66.2 °F 60.8 °F 83% 29.86 in 10.0 mi SSW 18.4 mph - N/A   Overcast
12:35 PM 69.8 °F 62.6 °F 78% 29.83 in 10.0 mi South 13.8 mph 24.2 mph N/A   Overcast
12:55 PM 69.8 °F 60.8 °F 73% 29.83 in 10.0 mi SSW 15.0 mph 21.9 mph N/A   Overcast
1:15 PM 71.6 °F 60.8 °F 69% 29.80 in 10.0 mi SSW 16.1 mph 26.5 mph N/A   Overcast
1:35 PM 71.6 °F 60.8 °F 69% 29.79 in 10.0 mi South 18.4 mph 27.6 mph N/A   Overcast
1:55 PM 73.4 °F 60.8 °F 65% 29.77 in 10.0 mi South 18.4 mph 25.3 mph N/A   Overcast
2:15 PM 73.4 °F 60.8 °F 65% 29.75 in 10.0 mi SSW 18.4 mph 27.6 mph N/A   Overcast
2:35 PM 73.4 °F 60.8 °F 65% 29.73 in 10.0 mi South 15.0 mph 33.4 mph N/A   Overcast
2:55 PM 73.4 °F 60.8 °F 65% 29.72 in 10.0 mi South 19.6 mph 32.2 mph N/A   Overcast
3:15 PM 73.4 °F 60.8 °F 65% 29.71 in 10.0 mi SSW 23.0 mph 29.9 mph N/A   Overcast
3:35 PM 73.4 °F 60.8 °F 65% 29.70 in 10.0 mi South 21.9 mph 29.9 mph N/A   Mostly Cloudy
3:55 PM 73.4 °F 60.8 °F 65% 29.70 in 10.0 mi South 18.4 mph 26.5 mph N/A   Overcast
4:15 PM 73.4 °F 59.0 °F 61% 29.69 in 10.0 mi SSW 23.0 mph 29.9 mph N/A   Overcast
4:35 PM 73.4 °F 60.8 °F 65% 29.67 in 10.0 mi South 12.7 mph 24.2 mph N/A   Overcast
4:55 PM 71.6 °F 59.0 °F 64% 29.67 in 10.0 mi SSW 19.6 mph 26.5 mph N/A   Overcast
5:15 PM 73.4 °F 57.2 °F 57% 29.67 in 10.0 mi South 26.5 mph 35.7 mph N/A   Overcast
5:35 PM 71.6 °F 57.2 °F 60% 29.66 in 10.0 mi South 21.9 mph 38.0 mph N/A   Mostly Cloudy
5:55 PM 71.6 °F 55.4 °F 57% 29.64 in 10.0 mi South 20.7 mph 31.1 mph N/A   Partly Cloudy
6:15 PM 71.6 °F 55.4 °F 57% 29.63 in 10.0 mi South 18.4 mph 33.4 mph N/A   Partly Cloudy
6:35 PM 71.6 °F 55.4 °F 57% 29.61 in 10.0 mi South 20.7 mph 34.5 mph N/A   Partly Cloudy
7:15 PM 69.8 °F 57.2 °F 64% 29.60 in 10.0 mi South 24.2 mph 39.1 mph N/A   Mostly Cloudy
7:35 PM 69.8 °F 57.2 °F 64% 29.58 in 10.0 mi South 20.7 mph 34.5 mph N/A   Mostly Cloudy
7:55 PM 69.8 °F 57.2 °F 64% 29.57 in 10.0 mi South 19.6 mph 35.7 mph N/A   Overcast
8:15 PM 69.8 °F 57.2 °F 64% 29.56 in 10.0 mi South 24.2 mph 35.7 mph N/A   Overcast
8:35 PM 69.8 °F 59.0 °F 68% 29.57 in 10.0 mi SSW 19.6 mph 39.1 mph N/A   Overcast
8:55 PM 69.8 °F 59.0 °F 68% 29.55 in 10.0 mi South 19.6 mph 35.7 mph N/A   Overcast
9:15 PM 69.8 °F 59.0 °F 68% 29.54 in 10.0 mi South 27.6 mph 40.3 mph N/A   Overcast
9:35 PM 69.8 °F 59.0 °F 68% 29.52 in 10.0 mi South 26.5 mph 39.1 mph N/A   Overcast
9:55 PM 69.8 °F 59.0 °F 68% 29.51 in 10.0 mi South 19.6 mph 39.1 mph N/A   Overcast
10:15 PM 68.0 °F 60.8 °F 78% 29.49 in 10.0 mi South 21.9 mph 33.4 mph N/A   Overcast
10:35 PM 66.2 °F 60.8 °F 83% 29.47 in 10.0 mi South 20.7 mph 31.1 mph N/A   Overcast
10:55 PM 66.2 °F 60.8 °F 83% 29.48 in 8.0 mi SSW 18.4 mph 34.5 mph 0.03 in   Overcast
11:15 PM 62.6 °F 59.0 °F 88% 29.52 in 7.0 mi West 13.8 mph 31.1 mph 0.20 in   Overcast
11:35 PM 60.8 °F 57.2 °F 88% 29.53 in 10.0 mi West 21.9 mph 38.0 mph 0.24 in   Overcast
11:55 PM 59.0 °F 53.6 °F 82% 29.55 in 10.0 mi WSW 17.3 mph 24.2 mph 0.24 in   Mostly Cloudy